[[{"header":{"parameterUnit":"m.s-1","parameterCategory":1,"la1":30.2991,"la2":30.254,"lo1":-89.0895,"lo2":-89.0444,"dy":0.0017,"dx":0.0017,"nx":28,"ny":28,"refTime":"2025-09-06T21:00:00:Z","depth":0,"parameterNumber":2,"parameterNumberName":"U-component_of_WINDS"},"data":[0,0,0,0,0,0,0,0,0,0,0,0,0,0,0,0,0,0,0,0,0,0,0,0,0,0,0,0,0,0,0,0,0,0,0,0,0,0,0,0,0,0,0,0,0,0,0,0,0,0,0,0,0,0,0,0,0,0,-1.6136,-1.6136,0,-1.617,-1.6171,-1.6171,-1.6148,-1.6147,-1.6146,-1.6145,-1.618,-1.6182,-1.6184,0,0,0,0,0,0,0,0,0,0,0,0,0,-1.605,-1.6052,-1.6136,-1.6136,-1.6137,-1.617,-1.6171,-1.6171,-1.6148,-1.6147,-1.6146,-1.6144,-1.618,-1.6182,-1.6184,0,0,0,0,0,0,0,0,0,0,0,0,0,-1.6086,-1.6052,-1.6136,-1.6129,-1.6129,-1.617,-1.6171,-1.6171,-1.6148,-1.6147,-1.6145,-1.6144,-1.6179,-1.6182,-1.6184,-1.6234,0,0,-1.6193,-1.6194,0,0,0,0,0,0,0,0,-1.6084,-1.6089,-1.613,-1.613,-1.613,-1.6153,-1.6153,-1.6192,-1.6149,-1.6141,-1.6145,-1.6143,-1.6172,-1.6176,-1.6186,-1.6235,-1.6237,-1.6193,-1.6195,-1.6196,-1.6197,0,0,0,0,0,0,0,-1.6082,-1.6088,-1.6149,-1.613,-1.613,-1.6124,-1.6128,-1.616,-1.6165,-1.6142,-1.614,-1.6144,-1.6172,-1.6183,-1.6186,-1.6237,-1.6193,-1.6196,-1.6198,-1.6199,-1.6329,-1.6331,0,0,0,0,0,0,-1.608,-1.6086,-1.6148,-1.615,-1.6102,-1.6127,-1.6131,-1.6147,-1.6165,-1.6166,-1.6146,-1.6143,-1.6179,-1.6183,-1.6187,-1.6247,-1.6196,-1.6199,-1.6201,-1.6328,-1.633,-1.6331,0,0,0,0,0,0,-1.6078,-1.6085,-1.6147,-1.6118,-1.6125,-1.613,-1.6149,-1.6149,-1.616,-1.6168,-1.6169,-1.6156,-1.6178,-1.6183,-1.6222,-1.6248,-1.62,-1.6203,-1.6325,-1.6328,-1.6331,-1.6365,0,0,0,0,0,0,-1.6075,-1.6085,-1.6104,-1.6118,-1.6127,-1.6182,-1.615,-1.615,-1.6165,-1.6162,-1.6178,-1.6179,-1.6177,-1.6218,-1.6225,-1.6251,-1.6205,-1.6323,-1.6327,-1.633,-1.6362,-1.6369,-1.6375,0,0,0,0,0,-1.6073,-1.6112,-1.6105,-1.6113,-1.615,-1.6183,-1.6188,-1.6185,-1.6167,-1.6186,-1.6191,-1.6178,-1.6243,-1.6222,-1.623,-1.6257,-1.6322,-1.6326,-1.6329,-1.6359,-1.6368,-1.6375,0,0,0,0,0,0,-1.6101,-1.6114,-1.6106,-1.6152,-1.6166,-1.6179,-1.6203,-1.6194,-1.6214,-1.621,-1.6206,-1.6209,-1.625,-1.6257,-1.6234,-1.6305,-1.628,-1.6285,-1.63,-1.6308,-1.6314,-1.6312,-1.6208,0,0,0,0,0,-1.6113,-1.6138,-1.6148,-1.6187,-1.6195,-1.6198,-1.6212,-1.6208,-1.6223,-1.6229,-1.6237,-1.6252,-1.6276,-1.6292,-1.6314,-1.6362,-1.6366,-1.6385,-1.6391,-1.6396,-1.6401,-1.6428,-1.6436,-1.6344,-1.6344,-1.6344,0,0,-1.6137,-1.6147,-1.6164,-1.6193,-1.6204,-1.6231,-1.6203,-1.6232,-1.6252,-1.6234,-1.6271,-1.6278,-1.6294,-1.6338,-1.6357,-1.6345,-1.6427,-1.6401,-1.6405,-1.6408,-1.6433,-1.6441,-1.6449,-1.6347,-1.6346,-1.6346,0,0,-1.6195,-1.6205,-1.6239,-1.625,-1.6267,-1.6269,-1.6277,-1.6291,-1.6294,-1.6332,-1.6319,-1.6342,-1.6383,-1.6395,-1.6407,-1.6468,-1.6458,-1.6476,-1.6509,-1.6535,-1.6542,-1.6549,-1.6571,-1.658,-1.6481,-1.6481,-1.6481,0,-1.6223,-1.6263,-1.6258,-1.6288,-1.6301,-1.6286,-1.632,-1.6331,-1.6355,-1.6364,-1.635,-1.6401,-1.6411,-1.6457,-1.6472,-1.6482,-1.6491,-1.6475,-1.6542,-1.6548,-1.6554,-1.6576,-1.6584,-1.6483,-1.6483,-1.6483,-1.6482,0,-1.6297,-1.6324,-1.6349,-1.6372,-1.6389,-1.6421,-1.6421,-1.6438,-1.6432,-1.6435,-1.6473,-1.6485,-1.6509,-1.6519,-1.6514,-1.6565,-1.6557,-1.6542,-1.6516,-1.6565,-1.6585,-1.6593,-1.6486,-1.6485,-1.6485,-1.6484,0,0,-1.6375,-1.6394,-1.6404,-1.6414,-1.6431,-1.6452,-1.6483,-1.6507,-1.6522,-1.6538,-1.6564,-1.6599,-1.6585,-1.6598,-1.6594,-1.6617,-1.6666,-1.6599,-1.6599,-1.6612,-1.6723,-1.6735,-1.6745,-1.6658,-1.6659,-1.6661,-1.6722,0,-1.6435,-1.6489,-1.6486,-1.6537,-1.6563,-1.6548,-1.6575,-1.6588,-1.6591,-1.6613,-1.6617,-1.6642,-1.6621,-1.6629,-1.665,-1.6655,-1.6688,-1.665,-1.6683,-1.6684,-1.6681,-1.6755,-1.6768,-1.6826,-1.673,-1.6731,-1.6732,0,-1.6512,-1.6531,-1.6585,-1.6598,-1.6609,-1.6633,-1.6655,-1.6676,-1.669,-1.6691,-1.6705,-1.6698,-1.6729,-1.6701,-1.6745,-1.6719,-1.6732,-1.6736,-1.6738,-1.6742,-1.6712,-1.6762,-1.6844,-1.6853,-1.6744,-1.6743,-1.6742,0,-1.6565,-1.6604,-1.6641,-1.665,-1.6666,-1.6684,-1.6691,-1.6704,-1.6719,-1.6737,-1.6746,-1.6768,-1.678,-1.6797,-1.6796,-1.6776,-1.684,-1.6812,-1.6842,-1.6842,-1.6857,-1.6857,-1.6943,-1.6864,-1.6863,-1.6863,-1.6863,0,-1.6632,-1.6667,-1.6665,-1.6688,-1.6726,-1.6721,-1.6758,-1.6763,-1.6775,-1.6799,-1.6786,-1.6809,-1.6805,-1.6828,-1.6826,-1.6863,-1.6868,-1.687,-1.6869,-1.6872,-1.6871,-1.6881,-1.6877,-1.6866,-1.6865,-1.6865,-1.6864,0,-1.6699,-1.6699,-1.6739,-1.675,-1.6754,-1.6781,-1.6791,-1.6813,-1.6815,-1.6845,-1.6852,-1.6855,-1.6881,-1.688,-1.691,-1.6909,-1.6954,-1.6948,-1.6949,-1.6949,-1.6979,-1.6976,-1.7075,-1.7088,-1.6999,-1.7,-1.7001,0,-1.6742,-1.6768,-1.6782,-1.6798,-1.6806,-1.6831,-1.6845,-1.6841,-1.6857,-1.6875,-1.6895,-1.6919,-1.6939,-1.6981,-1.6986,-1.7008,-1.7004,-1.7037,-1.7007,-1.7009,-1.7005,-1.7004,-1.7007,-1.7043,-1.7044,-1.7045,-1.7045,0,-1.6821,-1.6819,-1.6841,-1.6863,-1.6881,-1.6897,-1.6913,-1.6926,-1.6923,-1.6941,-1.6968,-1.6983,-1.7013,-1.7038,-1.7059,-1.7066,-1.7056,-1.7054,-1.7063,-1.7066,-1.7066,-1.7068,-1.6966,-1.7053,-1.7052,-1.7051,-1.7051,-1.7051,-1.6878,-1.69,-1.6914,-1.6938,-1.6949,-1.6964,-1.6985,-1.6989,-1.7011,-1.7035,-1.7031,-1.7061,-1.7074,-1.7102,-1.7111,-1.7134,-1.7122,-1.7134,-1.7137,-1.714,-1.7144,-1.7061,-1.7137,-1.7137,-1.7137,-1.7137,-1.7137,0,-1.6956,-1.6964,-1.6986,-1.7008,-1.7028,-1.7015,-1.7031,-1.7048,-1.7075,-1.7088,-1.7107,-1.7138,-1.7161,-1.7168,-1.7191,-1.7208,-1.7204,-1.7214,-1.7214,-1.7216,-1.7153,-1.7144,-1.7217,-1.7217,-1.7217,-1.7217,-1.7217,-1.7217,-1.6999,-1.7037,-1.7037,-1.7079,-1.7087,-1.7116,-1.7126,-1.714,-1.715,-1.7185,-1.7204,-1.7208,-1.7219,-1.7242,-1.7263,-1.7264,-1.7274,-1.7287,-1.7286,-1.7228,-1.722,-1.7212,-1.7204,-1.7289,-1.7289,-1.7347,-1.7347,-1.7348]},{"header":{"parameterUnit":"m.s-1","parameterCategory":1,"la1":30.2991,"la2":30.254,"lo1":-89.0895,"lo2":-89.0444,"dy":0.0017,"dx":0.0017,"nx":28,"ny":28,"refTime":"2025-09-06T21:00:00:Z","depth":0,"parameterNumber":3,"parameterNumberName":"V-component_of_WINDS"},"data":[0,0,0,0,0,0,0,0,0,0,0,0,0,0,0,0,0,0,0,0,0,0,0,0,0,0,0,0,0,0,0,0,0,0,0,0,0,0,0,0,0,0,0,0,0,0,0,0,0,0,0,0,0,0,0,0,0,0,-4.9455,-4.9455,0,-4.9485,-4.9485,-4.9485,-4.9441,-4.9439,-4.9437,-4.9436,-4.9462,-4.9464,-4.9466,0,0,0,0,0,0,0,0,0,0,0,0,0,-4.9356,-4.9358,-4.9455,-4.9456,-4.9456,-4.9485,-4.9485,-4.9485,-4.9441,-4.9439,-4.9437,-4.9435,-4.9461,-4.9464,-4.9466,0,0,0,0,0,0,0,0,0,0,0,0,0,-4.9394,-4.9359,-4.9455,-4.9437,-4.9436,-4.9485,-4.9485,-4.9486,-4.9441,-4.9439,-4.9437,-4.9434,-4.946,-4.9464,-4.9467,-4.9533,0,0,-4.9476,-4.9478,0,0,0,0,0,0,0,0,-4.9392,-4.9397,-4.9439,-4.9439,-4.9437,-4.9457,-4.946,-4.9501,-4.9442,-4.9439,-4.9436,-4.9433,-4.9462,-4.9465,-4.9475,-4.9534,-4.9535,-4.9477,-4.9479,-4.948,-4.9481,0,0,0,0,0,0,0,-4.9389,-4.9396,-4.9467,-4.944,-4.9439,-4.9426,-4.9429,-4.9467,-4.9463,-4.9439,-4.9436,-4.944,-4.9461,-4.9472,-4.9475,-4.9536,-4.9477,-4.9479,-4.9481,-4.9483,-4.9651,-4.9653,0,0,0,0,0,0,-4.9389,-4.9394,-4.9466,-4.9468,-4.9408,-4.943,-4.9433,-4.9453,-4.9462,-4.9462,-4.9442,-4.9438,-4.9468,-4.9472,-4.9476,-4.9555,-4.948,-4.9483,-4.9485,-4.9648,-4.9651,-4.9654,0,0,0,0,0,0,-4.9387,-4.9396,-4.9464,-4.943,-4.9438,-4.9434,-4.9456,-4.9454,-4.9466,-4.9465,-4.9463,-4.9455,-4.9466,-4.9472,-4.952,-4.9555,-4.9484,-4.9487,-4.9645,-4.9649,-4.9653,-4.9713,0,0,0,0,0,0,-4.9385,-4.9396,-4.9422,-4.9431,-4.944,-4.9509,-4.9459,-4.9457,-4.9472,-4.9467,-4.9477,-4.9476,-4.9465,-4.9515,-4.9523,-4.9558,-4.949,-4.9642,-4.9647,-4.9651,-4.9708,-4.9718,-4.9727,0,0,0,0,0,-4.9381,-4.9436,-4.9423,-4.9432,-4.9472,-4.9511,-4.9516,-4.9503,-4.9475,-4.9501,-4.95,-4.9476,-4.955,-4.952,-4.9529,-4.9566,-4.964,-4.9646,-4.9651,-4.9703,-4.9716,-4.9727,0,0,0,0,0,0,-4.9429,-4.9437,-4.9423,-4.9483,-4.9497,-4.9503,-4.9535,-4.9517,-4.9538,-4.9532,-4.9514,-4.9517,-4.9569,-4.9572,-4.9538,-4.9631,-4.959,-4.9598,-4.9627,-4.9639,-4.9649,-4.9647,-4.9493,0,0,0,0,0,-4.9447,-4.9479,-4.9484,-4.9536,-4.9544,-4.9539,-4.9555,-4.9544,-4.9557,-4.9562,-4.9565,-4.9578,-4.9604,-4.9621,-4.9645,-4.9708,-4.9709,-4.9737,-4.9747,-4.9755,-4.9762,-4.9796,-4.9809,-4.9673,-4.9673,-4.9673,0,0,-4.9484,-4.9492,-4.9513,-4.9546,-4.9555,-4.9588,-4.9544,-4.958,-4.9603,-4.9567,-4.9613,-4.9616,-4.9629,-4.9684,-4.9709,-4.9688,-4.98,-4.9763,-4.9769,-4.9772,-4.9803,-4.9816,-4.9827,-4.9677,-4.9676,-4.9675,0,0,-4.9567,-4.9577,-4.9622,-4.9633,-4.9649,-4.9645,-4.9656,-4.9666,-4.9667,-4.9713,-4.9687,-4.9714,-4.976,-4.977,-4.9781,-4.987,-4.9849,-4.9878,-4.993,-4.9963,-4.9974,-4.9983,-5.0015,-5.0027,-4.9885,-4.9885,-4.9885,0,-4.961,-4.966,-4.9647,-4.9686,-4.9701,-4.9672,-4.9717,-4.9728,-4.975,-4.976,-4.9738,-4.9795,-4.9801,-4.9859,-4.9881,-4.9891,-4.9903,-4.9877,-4.9973,-4.9983,-4.9991,-5.0022,-5.0034,-4.9889,-4.9889,-4.9888,-4.9888,0,-4.9713,-4.9747,-4.9782,-4.9806,-4.9825,-4.9867,-4.9859,-4.988,-4.9867,-4.9866,-4.9913,-4.992,-4.9945,-4.9958,-4.9946,-5.0015,-5.0002,-4.9977,-4.9935,-5.0008,-5.0037,-5.0048,-4.9894,-4.9893,-4.9892,-4.9891,0,0,-4.9827,-4.9845,-4.9858,-4.9869,-4.9885,-4.9911,-4.9951,-4.9977,-4.9995,-5.0012,-5.0045,-5.0084,-5.0062,-5.0074,-5.0063,-5.0092,-5.0163,-5.0063,-5.0063,-5.0082,-5.024,-5.0259,-5.0273,-5.0148,-5.015,-5.0152,-5.0239,0,-4.9911,-4.9983,-4.9973,-5.0041,-5.0073,-5.0045,-5.008,-5.0093,-5.0093,-5.0119,-5.0117,-5.0146,-5.0114,-5.0121,-5.0149,-5.0148,-5.0194,-5.0142,-5.0178,-5.018,-5.0177,-5.0288,-5.0308,-5.039,-5.025,-5.0252,-5.0253,0,-5.0019,-5.0042,-5.0114,-5.0126,-5.0138,-5.017,-5.0194,-5.022,-5.0233,-5.0231,-5.0246,-5.023,-5.0269,-5.0227,-5.028,-5.0245,-5.0259,-5.0261,-5.0264,-5.0267,-5.0221,-5.0294,-5.0415,-5.0428,-5.027,-5.0269,-5.0268,0,-5.0096,-5.0144,-5.0194,-5.0204,-5.0219,-5.0242,-5.0249,-5.0261,-5.0278,-5.0298,-5.0309,-5.0333,-5.0346,-5.0364,-5.0354,-5.0325,-5.041,-5.0367,-5.0408,-5.0409,-5.0428,-5.0427,-5.0553,-5.0436,-5.0436,-5.0436,-5.0436,0,-5.0191,-5.0237,-5.0229,-5.026,-5.031,-5.0297,-5.0346,-5.0349,-5.036,-5.039,-5.0367,-5.0395,-5.038,-5.0407,-5.0399,-5.0445,-5.0451,-5.045,-5.0447,-5.0452,-5.0453,-5.0462,-5.0456,-5.0439,-5.0438,-5.0438,-5.0437,0,-5.0286,-5.0283,-5.0336,-5.0346,-5.035,-5.0386,-5.0394,-5.0422,-5.0421,-5.0459,-5.0467,-5.0464,-5.0494,-5.0486,-5.0519,-5.0513,-5.0572,-5.0561,-5.0568,-5.0565,-5.0608,-5.0604,-5.0745,-5.0763,-5.0634,-5.0635,-5.0636,0,-5.0348,-5.0382,-5.0397,-5.0417,-5.0426,-5.0457,-5.0475,-5.0464,-5.0483,-5.0502,-5.0528,-5.0557,-5.0579,-5.0629,-5.0629,-5.0654,-5.0644,-5.0692,-5.0648,-5.0652,-5.0646,-5.0644,-5.0648,-5.0701,-5.0702,-5.0704,-5.0705,0,-5.0457,-5.0455,-5.0482,-5.051,-5.0532,-5.0552,-5.057,-5.0587,-5.0577,-5.0599,-5.0632,-5.0649,-5.0684,-5.0713,-5.0736,-5.0741,-5.0721,-5.0719,-5.073,-5.0735,-5.0738,-5.0738,-5.0592,-5.0715,-5.0714,-5.0714,-5.0713,-5.0712,-5.0538,-5.0568,-5.0584,-5.0615,-5.0628,-5.0646,-5.0673,-5.0676,-5.0703,-5.0731,-5.0722,-5.0759,-5.0772,-5.0801,-5.081,-5.0837,-5.0819,-5.0835,-5.0839,-5.0843,-5.0849,-5.0733,-5.0841,-5.0841,-5.0841,-5.084,-5.084,0,-5.0647,-5.0656,-5.0686,-5.0713,-5.0738,-5.0718,-5.0737,-5.0759,-5.0792,-5.0807,-5.083,-5.0867,-5.0895,-5.0898,-5.0924,-5.0946,-5.0937,-5.0953,-5.0952,-5.0953,-5.0863,-5.0852,-5.0959,-5.0959,-5.0959,-5.0959,-5.0959,-5.0959,-5.0707,-5.0757,-5.0756,-5.0812,-5.082,-5.0858,-5.087,-5.0886,-5.0898,-5.0941,-5.0965,-5.0967,-5.0977,-5.1004,-5.1028,-5.1028,-5.1039,-5.1059,-5.1055,-5.0971,-5.0959,-5.0948,-5.0937,-5.1061,-5.1061,-5.1143,-5.1143,-5.1144]}]]